When you browse on this site, cookies collect data to enhance your experience and personalize the content and advertising you see.
Visit our Privacy Policy to learn more. By continuing to use the site, you agree to this use of cookies and data.
  • In Sweden
  • List of Countries
  • For 7 days
  • Water Temperature
  • Satellite Maps
  • Weather Map
  • Weather Widgets
  • user-avatar
    Login

    Hourly Weather Trujillo

    Today, 19 January, Saturday

    Time Temperature Precipitation Wind Pressure Humidity
    00:00 +22°C° 0 mm 3 mps 761 mmHg 98%
    01:00 +21°C° 0 mm 3 mps 761 mmHg 98%
    02:00 +21°C° 0 mm 2 mps 761 mmHg 98%
    03:00 +21°C° 0 mm 2 mps 761 mmHg 98%
    04:00 +21°C° 0 mm 2 mps 761 mmHg 98%
    05:00 +20°C° 0 mm 2 mps 761 mmHg 98%
    06:00 +20°C° 0 mm 2 mps 761 mmHg 97%
    07:00 +24°C° 0 mm 2 mps 761 mmHg 87%
    08:00 +26°C° 0 mm 2 mps 761 mmHg 78%
    09:00 +28°C° 0 mm 1 mps 762 mmHg 68%
    10:00 +30°C° 0 mm 2 mps 761 mmHg 62%
    11:00 +32°C° 0 mm 2 mps 761 mmHg 56%
    12:00 +34°C° 0 mm 2 mps 761 mmHg 49%
    13:00 +32°C° 0 mm 2 mps 760 mmHg 57%
    14:00 +31°C° 0 mm 3 mps 759 mmHg 64%
    15:00 +29°C° 0 mm 3 mps 759 mmHg 71%
    16:00 +28°C° 0 mm 3 mps 759 mmHg 79%
    17:00 +27°C° 0 mm 4 mps 759 mmHg 88%
    18:00 +25°C° 0 mm 4 mps 759 mmHg 96%
    19:00 +25°C° 0 mm 4 mps 760 mmHg 97%
    20:00 +25°C° 0 mm 3 mps 760 mmHg 97%
    21:00 +24°C° 0 mm 3 mps 760 mmHg 97%
    22:00 +24°C° 0 mm 3 mps 761 mmHg 97%
    23:00 +24°C° 0 mm 2 mps 761 mmHg 96%

    Tomorrow, 20 January, Sunday

    Time Temperature Precipitation Wind Pressure Humidity
    00:00 +23°C° 0 mm 2 mps 761 mmHg 95%
    01:00 +23°C° 0 mm 2 mps 761 mmHg 95%
    02:00 +23°C° 0 mm 2 mps 761 mmHg 94%
    03:00 +23°C° 0 mm 2 mps 761 mmHg 93%
    04:00 +23°C° 0.1 mm 2 mps 761 mmHg 93%
    05:00 +22°C° 0.1 mm 3 mps 762 mmHg 92%
    06:00 +22°C° 0.1 mm 3 mps 762 mmHg 92%
    07:00 +24°C° 0.4 mm 3 mps 763 mmHg 88%
    08:00 +26°C° 0.4 mm 3 mps 763 mmHg 84%
    09:00 +28°C° 0.4 mm 4 mps 764 mmHg 80%
    10:00 +28°C° 0.6 mm 4 mps 764 mmHg 78%
    11:00 +28°C° 0.6 mm 4 mps 763 mmHg 76%
    12:00 +29°C° 0.6 mm 4 mps 763 mmHg 75%
    13:00 +28°C° 1.4 mm 4 mps 763 mmHg 79%
    14:00 +27°C° 1.4 mm 4 mps 763 mmHg 84%
    15:00 +27°C° 1.4 mm 4 mps 762 mmHg 88%
    16:00 +26°C° 2.4 mm 5 mps 763 mmHg 91%
    17:00 +25°C° 2.4 mm 5 mps 763 mmHg 94%
    18:00 +23°C° 2.4 mm 5 mps 764 mmHg 98%
    19:00 +23°C° 2.4 mm 6 mps 764 mmHg 97%
    20:00 +23°C° 2.4 mm 6 mps 765 mmHg 97%
    21:00 +22°C° 2.4 mm 7 mps 765 mmHg 97%
    22:00 +22°C° 0.9 mm 7 mps 765 mmHg 97%
    23:00 +22°C° 0.9 mm 6 mps 765 mmHg 97%

    Day after tomorrow, 21 January, Monday

    Time Temperature Precipitation Wind Pressure Humidity
    00:00 +22°C° 0.9 mm 6 mps 765 mmHg 97%
    01:00 +22°C° 0.5 mm 6 mps 765 mmHg 97%
    02:00 +21°C° 0.5 mm 5 mps 765 mmHg 97%
    03:00 +21°C° 0.5 mm 5 mps 764 mmHg 97%
    04:00 +21°C° 0.7 mm 5 mps 765 mmHg 97%
    05:00 +21°C° 0.7 mm 5 mps 765 mmHg 97%
    06:00 +21°C° 0.7 mm 5 mps 765 mmHg 97%
    07:00 +21°C° 1.1 mm 4 mps 766 mmHg 97%
    08:00 +21°C° 1.1 mm 4 mps 766 mmHg 98%
    09:00 +21°C° 1.1 mm 4 mps 767 mmHg 98%
    10:00 +21°C° 1 mm 4 mps 766 mmHg 98%
    11:00 +21°C° 1 mm 4 mps 766 mmHg 98%
    12:00 +21°C° 1 mm 3 mps 766 mmHg 98%
    13:00 +21°C° 0.7 mm 3 mps 765 mmHg 98%
    14:00 +21°C° 0.7 mm 3 mps 764 mmHg 98%
    15:00 +21°C° 0.7 mm 3 mps 764 mmHg 98%
    16:00 +21°C° 0.3 mm 2 mps 764 mmHg 98%
    17:00 +21°C° 0.3 mm 2 mps 764 mmHg 98%
    18:00 +21°C° 0.3 mm 2 mps 764 mmHg 98%
    19:00 +21°C° 0.3 mm 2 mps 765 mmHg 98%
    20:00 +22°C° 0.3 mm 1 mps 765 mmHg 98%
    21:00 +22°C° 0.3 mm 1 mps 765 mmHg 98%
    22:00 +22°C° 0.2 mm 1 mps 765 mmHg 98%
    23:00 +20°C° 0.2 mm 0 mps 765 mmHg 98%

    22 January, Tuesday

    Time Temperature Precipitation Wind Pressure Humidity
    00:00 +20°C° 0.2 mm 0 mps 764 mmHg 98%
    01:00 +22°C° 0.1 mm 1 mps 764 mmHg 98%
    02:00 +22°C° 0.1 mm 1 mps 763 mmHg 98%
    03:00 +22°C° 0.1 mm 1 mps 763 mmHg 99%
    04:00 +22°C° 0.1 mm 1 mps 763 mmHg 98%
    05:00 +22°C° 0.1 mm 1 mps 763 mmHg 98%
    06:00 +22°C° 0.1 mm 1 mps 763 mmHg 98%
    07:00 +22°C° 0.2 mm 1 mps 763 mmHg 98%
    08:00 +22°C° 0.2 mm 1 mps 764 mmHg 97%
    09:00 +23°C° 0.2 mm 1 mps 764 mmHg 97%
    10:00 +25°C° 0 mm 1 mps 764 mmHg 88%
    11:00 +27°C° 0 mm 1 mps 763 mmHg 80%
    12:00 +29°C° 0 mm 1 mps 762 mmHg 71%
    13:00 +29°C° 0.1 mm 2 mps 762 mmHg 73%
    14:00 +29°C° 0.1 mm 2 mps 761 mmHg 75%
    15:00 +28°C° 0.1 mm 2 mps 760 mmHg 76%
    16:00 +27°C° 0 mm 2 mps 760 mmHg 83%
    17:00 +26°C° 0 mm 3 mps 761 mmHg 89%
    18:00 +25°C° 0 mm 3 mps 761 mmHg 95%
    19:00 +24°C° 0 mm 3 mps 761 mmHg 95%
    20:00 +23°C° 0 mm 4 mps 762 mmHg 95%
    21:00 +23°C° 0 mm 4 mps 762 mmHg 95%
    22:00 +22°C° 0 mm 4 mps 762 mmHg 95%
    23:00 +22°C° 0 mm 4 mps 762 mmHg 95%

    23 January, Wednesday

    Time Temperature Precipitation Wind Pressure Humidity
    00:00 +22°C° 0 mm 3 mps 761 mmHg 95%
    01:00 +21°C° 0 mm 3 mps 761 mmHg 95%
    02:00 +21°C° 0 mm 3 mps 761 mmHg 95%
    03:00 +21°C° 0 mm 3 mps 760 mmHg 95%
    04:00 +21°C° 0 mm 3 mps 760 mmHg 95%
    05:00 +21°C° 0 mm 3 mps 761 mmHg 94%
    06:00 +21°C° 0 mm 2 mps 761 mmHg 94%
    07:00 +25°C° 0 mm 2 mps 761 mmHg 85%
    08:00 +27°C° 0 mm 2 mps 762 mmHg 76%
    09:00 +30°C° 0 mm 2 mps 762 mmHg 67%
    10:00 +31°C° 0 mm 3 mps 761 mmHg 63%
    11:00 +33°C° 0 mm 3 mps 761 mmHg 59%
    12:00 +34°C° 0 mm 4 mps 760 mmHg 55%
    13:00 +33°C° 0.1 mm 4 mps 759 mmHg 57%
    14:00 +33°C° 0.1 mm 4 mps 759 mmHg 58%
    15:00 +33°C° 0.1 mm 5 mps 758 mmHg 60%
    16:00 +30°C° 0 mm 5 mps 758 mmHg 68%
    17:00 +29°C° 0 mm 5 mps 758 mmHg 77%
    18:00 +27°C° 0 mm 5 mps 759 mmHg 85%
    19:00 +26°C° 0 mm 5 mps 759 mmHg 86%
    20:00 +26°C° 0 mm 5 mps 760 mmHg 86%
    21:00 +25°C° 0 mm 5 mps 760 mmHg 87%
    22:00 +25°C° 0 mm 4 mps 760 mmHg 88%
    23:00 +25°C° 0 mm 4 mps 760 mmHg 88%

    24 January, Thursday

    Time Temperature Precipitation Wind Pressure Humidity
    00:00 +23°C° 0 mm 4 mps 760 mmHg 89%
    01:00 +24°C° 0 mm 3 mps 760 mmHg 89%
    02:00 +24°C° 0 mm 3 mps 759 mmHg 90%
    03:00 +22°C° 0 mm 3 mps 759 mmHg 91%
    04:00 +23°C° 0 mm 2 mps 759 mmHg 91%
    05:00 +23°C° 0 mm 2 mps 760 mmHg 91%
    06:00 +23°C° 0 mm 2 mps 760 mmHg 91%
    07:00 +25°C° 0 mm 2 mps 761 mmHg 80%
    08:00 +28°C° 0 mm 1 mps 761 mmHg 70%
    09:00 +30°C° 0 mm 1 mps 762 mmHg 59%
    10:00 +31°C° 0 mm 2 mps 761 mmHg 55%
    11:00 +32°C° 0 mm 2 mps 761 mmHg 51%
    12:00 +35°C° 0 mm 3 mps 760 mmHg 47%
    13:00 +34°C° 0 mm 3 mps 760 mmHg 52%
    14:00 +33°C° 0 mm 4 mps 759 mmHg 57%
    15:00 +32°C° 0 mm 4 mps 759 mmHg 62%
    16:00 +29°C° 0 mm 4 mps 759 mmHg 73%
    17:00 +27°C° 0 mm 3 mps 759 mmHg 83%
    18:00 +25°C° 0 mm 2 mps 760 mmHg 93%
    19:00 +25°C° 0 mm 2 mps 760 mmHg 95%
    20:00 +25°C° 0 mm 2 mps 761 mmHg 96%
    21:00 +24°C° 0 mm 2 mps 761 mmHg 97%
    22:00 +24°C° 0 mm 2 mps 761 mmHg 96%
    23:00 +24°C° 0 mm 2 mps 761 mmHg 96%
    Show more